STARLINK-32828, 63045

Orbit data source: Space-Track

STARLINK-32828, 63045 is a payload satellite owned by SpaceX/Seattle (US) in LEO that was launched on Tue, 18 Feb 2025 UTC via an FALCON 9 launch vehicle from the Air Force Eastern Test Range (AFETR). Payload-class satellites include a variety of spacecraft equipped with specific instruments for various scientific and technological missions. These include communications satellites like Starlink; space stations such as the ISS; scientific satellites like the Hubble; Earth observation satellites from companies like Planet Labs, Umbra, and HawkEye 360; GPS; miniature CubeSats for education and research; and military/defense satellites.

Loading next visibility...
Identifier
63045, 2025-034S
Orbit
LEO
Country
Flag of USUS
Related business
Manufacturer
SpaceX/Seattle
Mission
Operational Commercial Communications
Bus & Motor
STARLINK V2M, Unknown motor
Mass
730 kg wet, ~700 kg dry
Launch date (UTC)
2025-02-18 (1 year ago)
Launch vehicle
FALCON 9
Launch site
Air Force Eastern Test Range (AFETR)
Object type
Payload
Rocket body
Debris
Shape & HBR
Box + 2 Pan, 17.7 m
Radar Cross Section
33.884 m², Large (>1 m²)

Expand to show TLE details & history
Last TLE update: 21 hours ago

TLE from 21 hours ago
0 STARLINK-32828
1 63045U 25034S   26170.95636593  .00012022  00000-0  41730-3 0  9999
2 63045  53.1599 155.9333 0001617  50.9147 309.1998 15.30205954 74567
Epoch: 2026-06-19T22:57Z
TLE epoch observation values (Epoch: 2026-06-19T22:57:10.016Z)
Latitude
0.00003°
Longitude
-96.53631°
Altitude
475.397 km
Speed
7.63 km/s
True Right ascension
10h 23m 43s
True Declination
0° 00' 00"
Sunlit
Object was in daylight at epoch
Visualization orbit readout
Latitude
Unknown
Longitude
Unknown
Altitude
Unknown
Speed
Unknown
Apparent Right ascension
Unknown
Apparent Declination
Unknown
Sunlit
N/A
Visualization observer readout
Local Sidereal Time
07:17:25
Azimuth
Unknown
Elevation
Unknown
Doppler factor
Unknown
Orbital elements
Apogee altitude
476.562 km
Perigee altitude
474.346 km
Semi-major axis
6,853.591 km
Eccentricity
0.00016
Inclination
53.1599°
RAAN
155.9333°
Arg. of periapsis
50.9147°
True anomaly
309.18544°
Mean anomaly
309.1998°
Eccentric anomaly
309.19262°
Mean motion
3.8253 °/min
Orbital period
94.11 mins
BSTAR
0.0004173
Loading maneuver chart data...
Computing Atmospheric mass density...
Loading historical data...
Loading historical data...
Loading historical data...
Loading historical data...
Loading historical data...
Loading historical data...
Loading historical data...

Documentation

Showing up to 5 results
|